Regional Weather Roundup
Issued by NWS

Home | Current Version | Previous Version | Text Only | Print | Product List | Glossary Off
Versions: 1 2 3 4 5 6 7 8 9 10 11 12 13 14 15 16 17 18 19 20 21 22 23 24 25 26 27 28 29 30 31 32 33 34 35 36 37 38 39 40 41 42 43 44 45 46 47 48 49 50

935
ASUS45 KSLC 241310
RWRUT

UTAH REGIONAL WEATHER ROUNDUP
NATIONAL WEATHER SERVICE SALT LAKE CITY UT
700 AM MDT SAT JUN 24 2017

UTZ001>011-023>025-241400-

NORTHERN UTAH

CITY           SKY/WX    TMP DP  RH WIND       PRES   REMARKS
BRIGHAM CITY   CLEAR     52  41  65 CALM      30.21R
HILL AFB       CLEAR     57  35  42 E20G28    30.21R
LOGAN          SUNNY     50  42  74 CALM      30.25R
OGDEN          CLEAR     58  37  45 S6        30.19R
SALT LAKE CITY CLEAR     63  42  46 MISG      30.19R
WENDOVER         N/A     67  31  26 CALM      30.20R
HEBER CITY     CLEAR     45  37  76 CALM      30.31R

$$

UTZ011>015-024>027-241400-

CENTRAL/NORTHEAST UTAH

CITY           SKY/WX    TMP DP  RH WIND       PRES   REMARKS
PROVO AIRPORT  CLEAR     54  36  50 SE5       30.23R
MOAB/CANYONLAN SUNNY     66  21  18 NE3       30.12R
DELTA          PTCLDY    55  32  41 CALM      30.21S
PRICE          MOSUNNY   62  18  18 S6        30.23R
ROOSEVELT      SUNNY     52  34  50 CALM      30.26R
VERNAL         SUNNY     61  33  35 CALM      30.24R

$$

UTZ013>016-019>022-027-241400-

SOUTHERN UTAH

CITY           SKY/WX    TMP DP  RH WIND       PRES   REMARKS
BRYCE CANYON   PTCLDY    45  26  47 W6        30.38R
CEDAR CITY     CLEAR     56  26  31 CALM      30.23R
MILFORD        CLEAR     52  21  29 CALM      30.21R
ST GEORGE      SUNNY     83  25  12 N17G23    29.98R
HANKSVILLE     CLEAR     57  19  23 CALM      30.16R
KANAB          CLEAR     68  27  21 NW10      30.18R
BLANDING       SUNNY     60  28  30 NW3       30.28R

$$

REGIONAL REPORTS     COLORADO/ARIZONA

CITY           SKY/WX    TMP DP  RH WIND       PRES   REMARKS
CRAIG, CO      CLOUDY    44  37  76 E3        30.33R
GRAND JUNCTION SUNNY     66  29  24 SE3       30.15R
RIFLE, CO      SUNNY     52  30  43 CALM      30.25R
MONTROSE, CO   CLOUDY    57  29  34 SE9       30.25R
CORTEZ, CO     CLOUDY    48  32  53 NE6       30.24R
COLORADO CITY    N/A     61  32  33 CALM      30.15R
PAGE, AZ       CLEAR     74  25  16 S3        30.09R
GRAND CANYON   CLEAR     58  27  30 E8        30.27R
KINGMAN, AZ    CLEAR     73  35  25 SE3       29.96R
FLAGSTAFF, AZ  CLEAR     51  29  42 CALM      30.29R

$$

REGIONAL REPORTS    NEVADA/IDAHO/WYOMING

CITY           SKY/WX    TMP DP  RH WIND       PRES   REMARKS
LAS VEGAS, NV  PTCLDY    90  21   8 NE6       29.87R
ELY, NY        PTCLDY    43  19  38 S10       30.32R
ELKO, NV       PTCLDY    49  35  58 CALM      30.27R
POCATELLO, ID  SUNNY     48  41  76 E3        30.25R
BURLEY, ID     CLEAR     50  38  63 MISG      30.21R
FORT BRIDGER,    N/A     45  31  58 CALM      30.40S
EVANSTON, WY   CLOUDY    48  31  51 E10       30.37R
ROCK SPRINGS,  SUNNY     48  30  49 E6        30.38R
KEMMERER, WY     N/A     43  30  61 N12       30.40R

$$




USA.gov is the U.S. government's official web portal to all federal, state and local government web resources and services.